User: anonymous   Login
Location: Acton
(51.4942°N, 0.2232°W)
Time: 01:55:32
(UTC+00:00)
Language:

Cosmos 1842 - Orbit

View from above orbital plane
View from above orbital plane
View from above satellite
View from above satellite

Ground track
Ground track

The orbit data is extracted from the following two-line orbital elements,

1 17911U 87038A   20334.69313769  .00000677  00000-0  37222-4 0  9991
2 17911  82.5237  38.8107 0010361 211.8552 148.2054 15.12388969832414
Epoch (UTC): 29 November 2020 16:38:07
Eccentricity: 0.0010361
inclination: 82.5237°
perigee height: 522 km
apogee height: 536 km
right ascension of ascending node: 38.8107°
argument of perigee: 211.8552°
revolutions per day: 15.12388969
mean anomaly at epoch: 148.2054°
orbit number at epoch: 83241

The dashed part of the orbit path shows where the satellite is in the earth's shadow,  

DLR